Regional Weather Roundup
Issued by NWS Spokane, WA

Home | Current Version | Previous Version | Text Only | Print | Product List | Glossary On
Versions: 1 2 3 4 5 6 7 8 9 10 11 12 13 14 15 16 17 18 19 20 21 22 23 24 25 26 27 28 29 30 31 32 33 34 35 36 37 38 39 40 41 42 43 44 45 46 47 48 49 50
726
NZUS01 KOTX 271625
RWROTX

Eastern Washington/Northern Idaho Roundup
National Weather Service, Spokane WA
900 AM PDT MON MAR 27 2017

Note: "fair" indicated few or no clouds below 12,000 feet with no
significant weather and/or obstructions to visibility.

...Northeast Washington and Northern Idaho Panhandle...

CITY           SKY/WX    TMP DP  RH WIND       PRES   REMARKS
Spokane Intl   PTSUNNY   41  37  86 SW15      29.94R
Spokane Downto CLOUDY    44  41  89 W6        29.96R
Coeur d Alene  LGT RAIN  41  39  93 W13       29.94R
Deer Park      CLOUDY    42  39  89 S9        29.93R
Sandpoint      DRIZZLE   41  41 100 S6        29.93R
Bonners Ferry  PTSUNNY   39  39 100 CALM      29.91R

...Southeast Washington and southern Idaho Panhandle...

CITY           SKY/WX    TMP DP  RH WIND       PRES   REMARKS
Walla Walla    CLOUDY    47  40  76 S10       30.03R
Pullman/Moscow PTSUNNY   42  36  79 W16G23    30.00R
Lewiston       PTSUNNY   47  44  90 NE5       29.99R
Lowell           N/A     41  38  89 CALM      30.04R
Grangeville    CLOUDY    39  36  87 SW13G20   29.98R

...Columbia Basin...

CITY           SKY/WX    TMP DP  RH WIND       PRES   REMARKS
Ephrata        SUNNY     43  36  76 CALM      29.95R
Moses Lake     SUNNY     43  38  82 SW5       29.97R
Pasco          SUNNY     51  39  63 W8        30.02R
Richland       SUNNY     51  43  72 SW9       30.03R
Hermiston      MOSUNNY   49  42  77 W9        30.03R
Pendleton      MOSUNNY   46  39  76 SW3       30.02R

...East Slopes Cascades...

CITY           SKY/WX    TMP DP  RH WIND       PRES   REMARKS
The Dalles     MOSUNNY   44  42  93 NE3       30.08R
Yakima         FOG       41  39  93 N3        30.00R VSB 1
Ellensburg     MOSUNNY   42  36  79 S3        29.97R
Wenatchee      MOSUNNY   39  37  92 W9        29.97R
Omak           CLOUDY    42  37  82 S5        29.96R
Sunnyside      MOSUNNY   44  39  83 CALM      30.02R

...Southern British Columbia...

CITY           SKY/WX    TMP DP  RH WIND       PRES   REMARKS
Penticton      PTSUNNY   41  39  93 SE3       29.94R
Castlegar      CLOUDY    39  39 100 CALM      29.92R FOG
Cranbrook      PTSUNNY   37  36  93 SW3       29.87R
Osoyoos          N/A     43  39  87 SE1         N/A
Creston          N/A     39  37  93 W2          N/A

...Western Montana...

CITY           SKY/WX    TMP DP  RH WIND       PRES   REMARKS
Kalispell      LGT RAIN  40  37  89 CALM      29.88R
Missoula       LGT RAIN  39  38  96 CALM      29.92R FOG

...Neighboring Cities...

CITY           SKY/WX    TMP DP  RH WIND       PRES   REMARKS
Seattle        PTSUNNY   46  43  89 S10       30.02R
Portland       PTSUNNY   48  43  82 S8        30.10R
Boise          PTSUNNY   44  39  82 NW15      29.99R
Great Falls    SUNNY     47  29  49 SW10      29.82R
Calgary        MOSUNNY   43  23  45 CALM      29.78R



USA.gov is the U.S. government's official web portal to all federal, state and local government web resources and services.